Satellite-Ground Cal/Val Region Overpasses Predictions

Prediction of Satellite NPP Overpassing Cal/Val Region: PacNW

Region Location: (Latitude: 10.00, Longitude: 139.50) to (Latitude: 22.70, Longitude: 165.60).

Table of predicted overpasses for the next 14.0 days since TLE Epoch: 12/6/2013
Interval Starting Time Starting Location Ending Time Ending Location
1 12/06/2013 15:32:04 ( 22.66, 152.36) 12/06/2013 15:35:39 ( 10.04, 149.35)
2 12/07/2013 02:41:09 ( 10.04, 159.86) 12/07/2013 02:44:44 ( 22.66, 156.84)
3 12/07/2013 15:13:03 ( 22.68, 157.12) 12/07/2013 15:16:39 ( 10.00, 154.09)
4 12/08/2013 02:22:09 ( 10.02, 164.62) 12/08/2013 02:25:45 ( 22.70, 161.59)
5 12/08/2013 14:54:04 ( 22.65, 161.86) 12/08/2013 14:57:39 ( 10.03, 158.85)
6 12/09/2013 03:44:39 ( 10.06, 143.99) 12/09/2013 03:48:14 ( 22.68, 140.97)
7 12/09/2013 14:36:14 ( 18.50, 165.60) 12/09/2013 14:38:38 ( 10.05, 163.61)
8 12/09/2013 16:16:33 ( 22.67, 141.25) 12/09/2013 16:18:35 ( 15.51, 139.51)
9 12/10/2013 03:25:39 ( 10.04, 148.75) 12/10/2013 03:29:14 ( 22.66, 145.73)
10 12/10/2013 15:57:33 ( 22.69, 146.01) 12/10/2013 16:01:09 ( 10.01, 142.98)
11 12/11/2013 03:06:39 ( 10.02, 153.51) 12/11/2013 03:10:15 ( 22.70, 150.48)
12 12/11/2013 15:38:33 ( 22.65, 150.75) 12/11/2013 15:42:08 ( 10.03, 147.74)
13 12/12/2013 02:47:38 ( 10.00, 158.27) 12/12/2013 02:51:14 ( 22.68, 155.24)
14 12/12/2013 15:19:33 ( 22.66, 155.51) 12/12/2013 15:23:08 ( 10.04, 152.50)
15 12/13/2013 02:28:39 ( 10.04, 163.01) 12/13/2013 02:32:14 ( 22.66, 160.00)
16 12/13/2013 15:00:32 ( 22.68, 160.27) 12/13/2013 15:04:08 ( 10.00, 157.25)
17 12/14/2013 02:12:15 ( 19.24, 165.60) 12/14/2013 02:13:13 ( 22.64, 164.76)
18 12/14/2013 03:51:08 ( 10.02, 142.40) 12/14/2013 03:54:35 ( 22.17, 139.50)
19 12/14/2013 14:41:32 ( 22.70, 165.03) 12/14/2013 14:45:08 ( 10.02, 162.01)
20 12/14/2013 16:23:02 ( 22.70, 139.66) 12/14/2013 16:23:12 ( 22.11, 139.51)
21 12/15/2013 03:32:08 ( 10.01, 147.15) 12/15/2013 03:35:44 ( 22.68, 144.13)
22 12/15/2013 16:04:02 ( 22.65, 144.40) 12/15/2013 16:07:37 ( 10.03, 141.39)
23
